Year,Month,Day,Hour,Minute,Value (Times are PST for temperature in C)
2009,04,05,00,00,2.50
2009,04,05,00,01,2.50
2009,04,05,00,02,2.50
2009,04,05,00,03,2.50
2009,04,05,00,04,2.50
2009,04,05,00,05,2.50
2009,04,05,00,06,2.50
2009,04,05,00,07,2.60
2009,04,05,00,08,2.50
2009,04,05,00,09,2.50
2009,04,05,00,10,2.50
2009,04,05,00,11,2.50
2009,04,05,00,12,2.50
2009,04,05,00,13,2.40
2009,04,05,00,14,2.40
2009,04,05,00,15,2.40
2009,04,05,00,16,2.40
2009,04,05,00,17,2.40
2009,04,05,00,18,2.40
2009,04,05,00,19,2.40
2009,04,05,00,20,2.40
2009,04,05,00,21,2.40
2009,04,05,00,22,2.30
2009,04,05,00,23,2.30
2009,04,05,00,24,2.30
2009,04,05,00,25,2.20
2009,04,05,00,26,2.20
2009,04,05,00,27,2.10
2009,04,05,00,28,2.10
2009,04,05,00,29,2.00
2009,04,05,00,30,2.00
2009,04,05,00,31,2.00
2009,04,05,00,32,2.00
2009,04,05,00,33,2.00
2009,04,05,00,34,2.00
2009,04,05,00,35,2.00
2009,04,05,00,36,2.00
2009,04,05,00,37,1.90
2009,04,05,00,38,1.90
2009,04,05,00,39,1.90
2009,04,05,00,40,1.90
2009,04,05,00,41,1.80
2009,04,05,00,42,1.80
2009,04,05,00,43,1.80
2009,04,05,00,44,1.70
2009,04,05,00,45,1.70
2009,04,05,00,46,1.70
2009,04,05,00,47,1.70
2009,04,05,00,48,1.60
2009,04,05,00,49,1.60
2009,04,05,00,50,1.60
2009,04,05,00,51,1.60
2009,04,05,00,52,1.60
2009,04,05,00,53,1.70
2009,04,05,00,54,1.70
2009,04,05,00,55,1.70
2009,04,05,00,56,1.80
2009,04,05,00,57,1.80
2009,04,05,00,58,1.80
2009,04,05,00,59,1.80
2009,04,05,01,00,1.90
2009,04,05,01,01,1.90
2009,04,05,01,02,2.00
2009,04,05,01,03,2.00
2009,04,05,01,04,2.10
2009,04,05,01,05,2.10
2009,04,05,01,06,2.10
2009,04,05,01,07,2.20
2009,04,05,01,08,2.20
2009,04,05,01,09,2.20
2009,04,05,01,10,2.20
2009,04,05,01,11,2.20
2009,04,05,01,12,2.10
2009,04,05,01,13,2.10
2009,04,05,01,14,2.10
2009,04,05,01,15,2.10
2009,04,05,01,16,2.10
2009,04,05,01,17,2.10
2009,04,05,01,18,2.10
2009,04,05,01,19,2.10
2009,04,05,01,20,2.10
2009,04,05,01,21,2.10
2009,04,05,01,22,2.00
2009,04,05,01,23,2.00
2009,04,05,01,24,2.00
2009,04,05,01,25,2.00
2009,04,05,01,26,2.00
2009,04,05,01,27,2.00
2009,04,05,01,28,1.90
2009,04,05,01,29,1.90
2009,04,05,01,30,1.90
2009,04,05,01,31,1.80
2009,04,05,01,32,1.80
2009,04,05,01,33,1.70
2009,04,05,01,34,1.70
2009,04,05,01,35,1.70
2009,04,05,01,36,1.70
2009,04,05,01,37,1.70
2009,04,05,01,38,1.70
2009,04,05,01,39,1.70
2009,04,05,01,40,1.80
2009,04,05,01,41,1.80
2009,04,05,01,42,1.80
2009,04,05,01,43,1.80
2009,04,05,01,44,1.90
2009,04,05,01,45,1.90
2009,04,05,01,46,1.80
2009,04,05,01,47,1.80
2009,04,05,01,48,1.70
2009,04,05,01,49,1.70
2009,04,05,01,50,1.70
2009,04,05,01,51,1.70
2009,04,05,01,52,1.70
2009,04,05,01,53,1.70
2009,04,05,01,54,1.80
2009,04,05,01,55,1.80
2009,04,05,01,56,1.80
2009,04,05,01,57,1.80
2009,04,05,01,58,1.80
2009,04,05,01,59,1.80
2009,04,05,02,00,1.80
2009,04,05,02,01,1.80
2009,04,05,02,02,1.80
2009,04,05,02,03,1.80
2009,04,05,02,04,1.80
2009,04,05,02,05,1.80
2009,04,05,02,06,1.80
2009,04,05,02,07,1.80
2009,04,05,02,08,1.70
2009,04,05,02,09,1.70
2009,04,05,02,10,1.70
2009,04,05,02,11,1.60
2009,04,05,02,12,1.60
2009,04,05,02,13,1.60
2009,04,05,02,14,1.50
2009,04,05,02,15,1.50
2009,04,05,02,16,1.40
2009,04,05,02,17,1.30
2009,04,05,02,18,1.30
2009,04,05,02,19,1.30
2009,04,05,02,20,1.30
2009,04,05,02,21,1.30
2009,04,05,02,22,1.30
2009,04,05,02,23,1.30
2009,04,05,02,24,1.30
2009,04,05,02,25,1.30
2009,04,05,02,26,1.30
2009,04,05,02,27,1.20
2009,04,05,02,28,1.30
2009,04,05,02,29,1.30
2009,04,05,02,30,1.30
2009,04,05,02,31,1.30
2009,04,05,02,32,1.30
2009,04,05,02,33,1.30
2009,04,05,02,34,1.30
2009,04,05,02,35,1.30
2009,04,05,02,36,1.30
2009,04,05,02,37,1.30
2009,04,05,02,38,1.30
2009,04,05,02,39,1.30
2009,04,05,02,40,1.30
2009,04,05,02,41,1.30
2009,04,05,02,42,1.30
2009,04,05,02,43,1.40
2009,04,05,02,44,1.40
2009,04,05,02,45,1.40
2009,04,05,02,46,1.30
2009,04,05,02,47,1.30
2009,04,05,02,48,1.30
2009,04,05,02,49,1.30
2009,04,05,02,50,1.30
2009,04,05,02,51,1.30
2009,04,05,02,52,1.30
2009,04,05,02,53,1.30
2009,04,05,02,54,1.30
2009,04,05,02,55,1.30
2009,04,05,02,56,1.30
2009,04,05,02,57,1.30
2009,04,05,02,58,1.30
2009,04,05,02,59,1.30
2009,04,05,03,00,1.30
2009,04,05,03,01,1.30
2009,04,05,03,02,1.30
2009,04,05,03,03,1.30
2009,04,05,03,04,1.20
2009,04,05,03,05,1.20
2009,04,05,03,06,1.20
2009,04,05,03,07,1.20
2009,04,05,03,08,1.20
2009,04,05,03,09,1.30
2009,04,05,03,10,1.30
2009,04,05,03,11,1.20
2009,04,05,03,12,1.20
2009,04,05,03,13,1.10
2009,04,05,03,14,1.10
2009,04,05,03,15,1.10
2009,04,05,03,16,1.10
2009,04,05,03,17,1.00
2009,04,05,03,18,1.00
2009,04,05,03,19,0.90
2009,04,05,03,20,0.90
2009,04,05,03,21,0.80
2009,04,05,03,22,0.80
2009,04,05,03,23,0.80
2009,04,05,03,24,0.80
2009,04,05,03,25,0.80
2009,04,05,03,26,0.80
2009,04,05,03,27,0.70
2009,04,05,03,28,0.70
2009,04,05,03,29,0.70
2009,04,05,03,30,0.70
2009,04,05,03,31,0.70
2009,04,05,03,32,0.60
2009,04,05,03,33,0.60
2009,04,05,03,34,0.50
2009,04,05,03,35,0.50
2009,04,05,03,36,0.40
2009,04,05,03,37,0.40
2009,04,05,03,38,0.40
2009,04,05,03,39,0.40
2009,04,05,03,40,0.40
2009,04,05,03,41,0.40
2009,04,05,03,42,0.50
2009,04,05,03,43,0.50
2009,04,05,03,44,0.50
2009,04,05,03,45,0.50
2009,04,05,03,46,0.60
2009,04,05,03,47,0.60
2009,04,05,03,48,0.70
2009,04,05,03,49,0.70
2009,04,05,03,50,0.70
2009,04,05,03,51,0.60
2009,04,05,03,52,0.50
2009,04,05,03,53,0.30
2009,04,05,03,54,0.30
2009,04,05,03,55,0.20
2009,04,05,03,56,0.20
2009,04,05,03,57,0.20
2009,04,05,03,58,0.20
2009,04,05,03,59,0.20
2009,04,05,04,00,0.20
2009,04,05,04,01,0.20
2009,04,05,04,02,0.20
2009,04,05,04,03,0.20
2009,04,05,04,04,0.20
2009,04,05,04,05,0.10
2009,04,05,04,06,0.10
2009,04,05,04,07,0.10
2009,04,05,04,08,0.10
2009,04,05,04,09,0.10
2009,04,05,04,10,0.10
2009,04,05,04,11,0.00
2009,04,05,04,12,0.00
2009,04,05,04,13,0.00
2009,04,05,04,14,-0.10
2009,04,05,04,15,-0.10
2009,04,05,04,16,-0.10
2009,04,05,04,17,-0.10
2009,04,05,04,18,-0.10
2009,04,05,04,19,-0.10
2009,04,05,04,20,-0.10
2009,04,05,04,21,-0.10
2009,04,05,04,22,-0.10
2009,04,05,04,23,-0.10
2009,04,05,04,24,-0.20
2009,04,05,04,25,-0.20
2009,04,05,04,26,-0.20
2009,04,05,04,27,-0.20
2009,04,05,04,28,-0.20
2009,04,05,04,29,-0.30
2009,04,05,04,30,-0.30
2009,04,05,04,31,-0.30
2009,04,05,04,32,-0.30
2009,04,05,04,33,-0.30
2009,04,05,04,34,-0.30
2009,04,05,04,35,-0.20
2009,04,05,04,36,-0.20
2009,04,05,04,37,-0.30
2009,04,05,04,38,-0.30
2009,04,05,04,39,-0.30
2009,04,05,04,40,-0.30
2009,04,05,04,41,-0.30
2009,04,05,04,42,-0.30
2009,04,05,04,43,-0.30
2009,04,05,04,44,-0.30
2009,04,05,04,45,-0.30
2009,04,05,04,46,-0.30
2009,04,05,04,47,-0.30
2009,04,05,04,48,-0.20
2009,04,05,04,49,-0.20
2009,04,05,04,50,-0.20
2009,04,05,04,51,-0.20
2009,04,05,04,52,-0.20
2009,04,05,04,53,-0.20
2009,04,05,04,54,-0.10
2009,04,05,04,55,-0.10
2009,04,05,04,56,-0.20
2009,04,05,04,57,-0.20
2009,04,05,04,58,-0.10
2009,04,05,04,59,-0.10
2009,04,05,05,00,-0.10
2009,04,05,05,01,-0.10
2009,04,05,05,02,-0.10
2009,04,05,05,03,-0.20
2009,04,05,05,04,-0.20
2009,04,05,05,05,-0.10
2009,04,05,05,06,0.00
2009,04,05,05,07,0.10
2009,04,05,05,08,0.20
2009,04,05,05,09,0.30
2009,04,05,05,10,0.30
2009,04,05,05,11,0.30
2009,04,05,05,12,0.30
2009,04,05,05,13,0.30
2009,04,05,05,14,0.30
2009,04,05,05,15,0.30
2009,04,05,05,16,0.40
2009,04,05,05,17,0.50
2009,04,05,05,18,0.60
2009,04,05,05,19,0.70
2009,04,05,05,20,0.70
2009,04,05,05,21,0.70
2009,04,05,05,22,0.70
2009,04,05,05,23,0.70
2009,04,05,05,24,0.70
2009,04,05,05,25,0.70
2009,04,05,05,26,0.60
2009,04,05,05,27,0.50
2009,04,05,05,28,0.40
2009,04,05,05,29,0.40
2009,04,05,05,30,0.50
2009,04,05,05,31,0.50
2009,04,05,05,32,0.60
2009,04,05,05,33,0.60
2009,04,05,05,34,0.60
2009,04,05,05,35,0.60
2009,04,05,05,36,0.60
2009,04,05,05,37,0.60
2009,04,05,05,38,0.60
2009,04,05,05,39,0.60
2009,04,05,05,40,0.70
2009,04,05,05,41,0.70
2009,04,05,05,42,0.70
2009,04,05,05,43,0.70
2009,04,05,05,44,0.70
2009,04,05,05,45,0.70
2009,04,05,05,46,0.80
2009,04,05,05,47,0.70
2009,04,05,05,48,0.70
2009,04,05,05,49,0.80
2009,04,05,05,50,0.80
2009,04,05,05,51,0.80
2009,04,05,05,52,0.60
2009,04,05,05,53,0.50
2009,04,05,05,54,0.40
2009,04,05,05,55,0.30
2009,04,05,05,56,0.30
2009,04,05,05,57,0.30
2009,04,05,05,58,0.20
2009,04,05,05,59,0.20
2009,04,05,06,00,0.30
2009,04,05,06,01,0.30
2009,04,05,06,02,0.30
2009,04,05,06,03,0.30
2009,04,05,06,04,0.30
2009,04,05,06,05,0.30
2009,04,05,06,06,0.30
2009,04,05,06,07,0.30
2009,04,05,06,08,0.30
2009,04,05,06,09,0.20
2009,04,05,06,10,0.20
2009,04,05,06,11,0.20
2009,04,05,06,12,0.10
2009,04,05,06,13,0.10
2009,04,05,06,14,0.10
2009,04,05,06,15,0.20
2009,04,05,06,16,0.20
2009,04,05,06,17,0.30
2009,04,05,06,18,0.30
2009,04,05,06,19,0.30
2009,04,05,06,20,0.30
2009,04,05,06,21,0.40
2009,04,05,06,22,0.40
2009,04,05,06,23,0.40
2009,04,05,06,24,0.50
2009,04,05,06,25,0.50
2009,04,05,06,26,0.60
2009,04,05,06,27,0.60
2009,04,05,06,28,0.60
2009,04,05,06,29,0.70
2009,04,05,06,30,0.70
2009,04,05,06,31,0.70
2009,04,05,06,32,0.70
2009,04,05,06,33,0.70
2009,04,05,06,34,0.70
2009,04,05,06,35,0.50
2009,04,05,06,36,0.40
2009,04,05,06,37,0.30
2009,04,05,06,38,0.20
2009,04,05,06,39,0.10
2009,04,05,06,40,0.10
2009,04,05,06,41,0.10
2009,04,05,06,42,0.00
2009,04,05,06,43,0.00
2009,04,05,06,44,0.00
2009,04,05,06,45,-0.10
2009,04,05,06,46,-0.10
2009,04,05,06,47,-0.10
2009,04,05,06,48,0.00
2009,04,05,06,49,0.10
2009,04,05,06,50,0.20
2009,04,05,06,51,0.20
2009,04,05,06,52,0.20
2009,04,05,06,53,0.20
2009,04,05,06,54,0.20
2009,04,05,06,55,0.10
2009,04,05,06,56,0.10
2009,04,05,06,57,0.00
2009,04,05,06,58,0.00
2009,04,05,06,59,-0.10
2009,04,05,07,00,-0.10
2009,04,05,07,01,-0.10
2009,04,05,07,02,0.00
2009,04,05,07,03,0.00
2009,04,05,07,04,0.10
2009,04,05,07,05,0.10
2009,04,05,07,06,0.10
2009,04,05,07,07,0.10
2009,04,05,07,08,0.10
2009,04,05,07,09,0.00
2009,04,05,07,10,0.00
2009,04,05,07,11,0.00
2009,04,05,07,12,0.00
2009,04,05,07,13,0.00
2009,04,05,07,14,0.10
2009,04,05,07,15,0.10
2009,04,05,07,16,0.20
2009,04,05,07,17,0.20
2009,04,05,07,18,0.20
2009,04,05,07,19,0.30
2009,04,05,07,20,0.40
2009,04,05,07,21,0.40
2009,04,05,07,22,0.50
2009,04,05,07,23,0.50
2009,04,05,07,24,0.50
2009,04,05,07,25,0.40
2009,04,05,07,26,0.30
2009,04,05,07,27,0.30
2009,04,05,07,28,0.30
2009,04,05,07,29,0.30
2009,04,05,07,30,0.30
2009,04,05,07,31,0.30
2009,04,05,07,32,0.40
2009,04,05,07,33,0.40
2009,04,05,07,34,0.50
2009,04,05,07,35,0.50
2009,04,05,07,36,0.50
2009,04,05,07,37,0.50
2009,04,05,07,38,0.50
2009,04,05,07,39,0.50
2009,04,05,07,40,0.50
2009,04,05,07,41,0.50
2009,04,05,07,42,0.40
2009,04,05,07,43,0.40
2009,04,05,07,44,0.40
2009,04,05,07,45,0.40
2009,04,05,07,46,0.40
2009,04,05,07,47,0.40
2009,04,05,07,48,0.40
2009,04,05,07,49,0.50
2009,04,05,07,50,0.60
2009,04,05,07,51,0.70
2009,04,05,07,52,0.70
2009,04,05,07,53,0.70
2009,04,05,07,54,0.70
2009,04,05,07,55,0.70
2009,04,05,07,56,0.80
2009,04,05,07,57,0.80
2009,04,05,07,58,0.80
2009,04,05,07,59,0.80
2009,04,05,08,00,0.80
2009,04,05,08,01,0.80
2009,04,05,08,02,0.80
2009,04,05,08,03,0.90
2009,04,05,08,04,1.00
2009,04,05,08,05,1.10
2009,04,05,08,06,1.10
2009,04,05,08,07,1.10
2009,04,05,08,08,1.20
2009,04,05,08,09,1.30
2009,04,05,08,10,1.30
2009,04,05,08,11,1.30
2009,04,05,08,12,1.30
2009,04,05,08,13,1.30
2009,04,05,08,14,1.50
2009,04,05,08,15,1.60
2009,04,05,08,16,1.60
2009,04,05,08,17,1.70
2009,04,05,08,18,1.70
2009,04,05,08,19,1.80
2009,04,05,08,20,1.90
2009,04,05,08,21,1.90
2009,04,05,08,22,1.90
2009,04,05,08,23,1.90
2009,04,05,08,24,2.00
2009,04,05,08,25,2.10
2009,04,05,08,26,2.20
2009,04,05,08,27,2.20
2009,04,05,08,28,2.30
2009,04,05,08,29,2.40
2009,04,05,08,30,2.40
2009,04,05,08,31,2.50
2009,04,05,08,32,2.60
2009,04,05,08,33,2.70
2009,04,05,08,34,2.80
2009,04,05,08,35,2.90
2009,04,05,08,36,3.00
2009,04,05,08,37,3.10
2009,04,05,08,38,3.20
2009,04,05,08,39,3.30
2009,04,05,08,40,3.30
2009,04,05,08,41,3.40
2009,04,05,08,42,3.50
2009,04,05,08,43,3.60
2009,04,05,08,44,3.70
2009,04,05,08,45,3.80
2009,04,05,08,46,3.90
2009,04,05,08,47,4.00
2009,04,05,08,48,4.00
2009,04,05,08,49,4.20
2009,04,05,08,50,4.30
2009,04,05,08,51,4.30
2009,04,05,08,52,4.50
2009,04,05,08,53,4.60
2009,04,05,08,54,4.70
2009,04,05,08,55,4.80
2009,04,05,08,56,4.90
2009,04,05,08,57,5.00
2009,04,05,08,58,5.10
2009,04,05,08,59,5.20
2009,04,05,09,00,5.30
2009,04,05,09,01,5.40
2009,04,05,09,02,5.50
2009,04,05,09,03,5.60
2009,04,05,09,04,5.70
2009,04,05,09,05,5.80
2009,04,05,09,06,5.90
2009,04,05,09,07,6.00
2009,04,05,09,08,6.20
2009,04,05,09,09,6.30
2009,04,05,09,10,6.40
2009,04,05,09,11,6.40
2009,04,05,09,12,6.50
2009,04,05,09,13,6.60
2009,04,05,09,14,6.70
2009,04,05,09,15,6.80
2009,04,05,09,16,6.90
2009,04,05,09,17,6.90
2009,04,05,09,18,7.00
2009,04,05,09,19,7.10
2009,04,05,09,20,7.20
2009,04,05,09,21,7.20
2009,04,05,09,22,7.30
2009,04,05,09,23,7.40
2009,04,05,09,24,7.40
2009,04,05,09,25,7.50
2009,04,05,09,26,7.60
2009,04,05,09,27,7.70
2009,04,05,09,28,7.70
2009,04,05,09,29,7.70
2009,04,05,09,30,7.80
2009,04,05,09,31,7.80
2009,04,05,09,32,7.80
2009,04,05,09,33,7.80
2009,04,05,09,34,7.80
2009,04,05,09,35,7.90
2009,04,05,09,36,7.90
2009,04,05,09,37,7.80
2009,04,05,09,38,7.80
2009,04,05,09,39,7.80
2009,04,05,09,40,7.80
2009,04,05,09,41,7.80
2009,04,05,09,42,7.90
2009,04,05,09,43,7.80
2009,04,05,09,44,7.80
2009,04,05,09,45,7.70
2009,04,05,09,46,7.70
2009,04,05,09,47,7.60
2009,04,05,09,48,7.60
2009,04,05,09,49,7.50
2009,04,05,09,50,7.60
2009,04,05,09,51,7.60
2009,04,05,09,52,7.60
2009,04,05,09,53,7.60
2009,04,05,09,54,7.70
2009,04,05,09,55,7.70
2009,04,05,09,56,7.80
2009,04,05,09,57,7.90
2009,04,05,09,58,7.90
2009,04,05,09,59,8.00
2009,04,05,10,00,8.00
2009,04,05,10,01,8.00
2009,04,05,10,02,7.90
2009,04,05,10,03,7.80
2009,04,05,10,04,7.70
2009,04,05,10,05,7.60
2009,04,05,10,06,7.60
2009,04,05,10,07,7.50
2009,04,05,10,08,7.40
2009,04,05,10,09,7.40
2009,04,05,10,10,7.50
2009,04,05,10,11,7.50
2009,04,05,10,12,7.60
2009,04,05,10,13,7.60
2009,04,05,10,14,7.60
2009,04,05,10,15,7.60
2009,04,05,10,16,7.60
2009,04,05,10,17,7.60
2009,04,05,10,18,7.60
2009,04,05,10,19,7.60
2009,04,05,10,20,7.50
2009,04,05,10,21,7.50
2009,04,05,10,22,7.40
2009,04,05,10,23,7.40
2009,04,05,10,24,7.50
2009,04,05,10,25,7.50
2009,04,05,10,26,7.50
2009,04,05,10,27,7.50
2009,04,05,10,28,7.50
2009,04,05,10,29,7.50
2009,04,05,10,30,7.50
2009,04,05,10,31,7.40
2009,04,05,10,32,7.40
2009,04,05,10,33,7.40
2009,04,05,10,34,7.40
2009,04,05,10,35,7.30
2009,04,05,10,36,7.30
2009,04,05,10,37,7.30
2009,04,05,10,38,7.30
2009,04,05,10,39,7.20
2009,04,05,10,40,7.20
2009,04,05,10,41,7.20
2009,04,05,10,42,7.20
2009,04,05,10,43,7.20
2009,04,05,10,44,7.20
2009,04,05,10,45,7.20
2009,04,05,10,46,7.20
2009,04,05,10,47,7.10
2009,04,05,10,48,7.10
2009,04,05,10,49,7.10
2009,04,05,10,50,7.10
2009,04,05,10,51,7.00
2009,04,05,10,52,7.00
2009,04,05,10,53,7.00
2009,04,05,10,54,7.10
2009,04,05,10,55,7.10
2009,04,05,10,56,7.10
2009,04,05,10,57,7.20
2009,04,05,10,58,7.20
2009,04,05,10,59,7.20
2009,04,05,11,00,7.20
2009,04,05,11,01,7.30
2009,04,05,11,02,7.30
2009,04,05,11,03,7.40
2009,04,05,11,04,7.40
2009,04,05,11,05,7.40
2009,04,05,11,06,7.50
2009,04,05,11,07,7.50
2009,04,05,11,08,7.50
2009,04,05,11,09,7.40
2009,04,05,11,10,7.30
2009,04,05,11,11,7.30
2009,04,05,11,12,7.30
2009,04,05,11,13,7.40
2009,04,05,11,14,7.40
2009,04,05,11,15,7.40
2009,04,05,11,16,7.40
2009,04,05,11,17,7.30
2009,04,05,11,18,7.30
2009,04,05,11,19,7.30
2009,04,05,11,20,7.30
2009,04,05,11,21,7.20
2009,04,05,11,22,7.30
2009,04,05,11,23,7.40
2009,04,05,11,24,7.50
2009,04,05,11,25,7.50
2009,04,05,11,26,7.60
2009,04,05,11,27,7.50
2009,04,05,11,28,7.50
2009,04,05,11,29,7.50
2009,04,05,11,30,7.50
2009,04,05,11,31,7.40
2009,04,05,11,32,7.40
2009,04,05,11,33,7.30
2009,04,05,11,34,7.20
2009,04,05,11,35,7.20
2009,04,05,11,36,7.20
2009,04,05,11,37,7.10
2009,04,05,11,38,7.10
2009,04,05,11,39,7.10
2009,04,05,11,40,7.00
2009,04,05,11,41,7.00
2009,04,05,11,42,7.00
2009,04,05,11,43,7.10
2009,04,05,11,44,7.10
2009,04,05,11,45,7.10
2009,04,05,11,46,7.20
2009,04,05,11,47,7.20
2009,04,05,11,48,7.20
2009,04,05,11,49,7.30
2009,04,05,11,50,7.30
2009,04,05,11,51,7.30
2009,04,05,11,52,7.40
2009,04,05,11,53,7.50
2009,04,05,11,54,7.50
2009,04,05,11,55,7.60
2009,04,05,11,56,7.60
2009,04,05,11,57,7.70
2009,04,05,11,58,7.70
2009,04,05,11,59,7.80
2009,04,05,12,00,7.80
2009,04,05,12,01,7.80
2009,04,05,12,02,7.90
2009,04,05,12,03,7.90
2009,04,05,12,04,8.00
2009,04,05,12,05,8.10
2009,04,05,12,06,8.20
2009,04,05,12,07,8.20
2009,04,05,12,08,8.20
2009,04,05,12,09,8.20
2009,04,05,12,10,8.20
2009,04,05,12,11,8.30
2009,04,05,12,12,8.30
2009,04,05,12,13,8.30
2009,04,05,12,14,8.40
2009,04,05,12,15,8.40
2009,04,05,12,16,8.50
2009,04,05,12,17,8.50
2009,04,05,12,18,8.50
2009,04,05,12,19,8.50
2009,04,05,12,20,8.50
2009,04,05,12,21,8.50
2009,04,05,12,22,8.50
2009,04,05,12,23,8.50
2009,04,05,12,24,8.40
2009,04,05,12,25,8.40
2009,04,05,12,26,8.40
2009,04,05,12,27,8.40
2009,04,05,12,28,8.40
2009,04,05,12,29,8.40
2009,04,05,12,30,8.40
2009,04,05,12,31,8.40
2009,04,05,12,32,8.40
2009,04,05,12,33,8.40
2009,04,05,12,34,8.40
2009,04,05,12,35,8.40
2009,04,05,12,36,8.40
2009,04,05,12,37,8.50
2009,04,05,12,38,8.50
2009,04,05,12,39,8.40
2009,04,05,12,40,8.40
2009,04,05,12,41,8.40
2009,04,05,12,42,8.40
2009,04,05,12,43,8.40
2009,04,05,12,44,8.40
2009,04,05,12,45,8.50
2009,04,05,12,46,8.50
2009,04,05,12,47,8.50
2009,04,05,12,48,8.40
2009,04,05,12,49,8.40
2009,04,05,12,50,8.40
2009,04,05,12,51,8.40
2009,04,05,12,52,8.40
2009,04,05,12,53,8.40
2009,04,05,12,54,8.30
2009,04,05,12,55,8.30
2009,04,05,12,56,8.30
2009,04,05,12,57,8.30
2009,04,05,12,58,8.40
2009,04,05,12,59,8.40
2009,04,05,13,00,8.50
2009,04,05,13,01,8.60
2009,04,05,13,02,8.60
2009,04,05,13,03,8.60
2009,04,05,13,04,8.60
2009,04,05,13,05,8.60
2009,04,05,13,06,8.60
2009,04,05,13,07,8.60
2009,04,05,13,08,8.60
2009,04,05,13,09,8.60
2009,04,05,13,10,8.70
2009,04,05,13,11,8.70
2009,04,05,13,12,8.70
2009,04,05,13,13,8.70
2009,04,05,13,14,8.70
2009,04,05,13,15,8.60
2009,04,05,13,16,8.60
2009,04,05,13,17,8.60
2009,04,05,13,18,8.70
2009,04,05,13,19,8.70
2009,04,05,13,20,8.80
2009,04,05,13,21,8.80
2009,04,05,13,22,8.80
2009,04,05,13,23,8.80
2009,04,05,13,24,8.80
2009,04,05,13,25,8.80
2009,04,05,13,26,8.80
2009,04,05,13,27,8.80
2009,04,05,13,28,8.70
2009,04,05,13,29,8.70
2009,04,05,13,30,8.60
2009,04,05,13,31,8.60
2009,04,05,13,32,8.60
2009,04,05,13,33,8.60
2009,04,05,13,34,8.70
2009,04,05,13,35,8.70
2009,04,05,13,36,8.70
2009,04,05,13,37,8.70
2009,04,05,13,38,8.70
2009,04,05,13,39,8.70
2009,04,05,13,40,8.80
2009,04,05,13,41,8.80
2009,04,05,13,42,9.00
2009,04,05,13,43,9.20
2009,04,05,13,44,9.30
2009,04,05,13,45,9.30
2009,04,05,13,46,9.30
2009,04,05,13,47,9.30
2009,04,05,13,48,9.30
2009,04,05,13,49,9.30
2009,04,05,13,50,9.20
2009,04,05,13,51,9.20
2009,04,05,13,52,9.20
2009,04,05,13,53,9.10
2009,04,05,13,54,9.10
2009,04,05,13,55,9.20
2009,04,05,13,56,9.20
2009,04,05,13,57,9.30
2009,04,05,13,58,9.30
2009,04,05,13,59,9.40
2009,04,05,14,00,9.40
2009,04,05,14,01,9.40
2009,04,05,14,02,9.40
2009,04,05,14,03,9.50
2009,04,05,14,04,9.60
2009,04,05,14,05,9.70
2009,04,05,14,06,9.80
2009,04,05,14,07,9.80
2009,04,05,14,08,9.90
2009,04,05,14,09,9.90
2009,04,05,14,10,9.90
2009,04,05,14,11,9.90
2009,04,05,14,12,9.80
2009,04,05,14,13,9.80
2009,04,05,14,14,9.80
2009,04,05,14,15,9.90
2009,04,05,14,16,9.90
2009,04,05,14,17,9.90
2009,04,05,14,18,9.80
2009,04,05,14,19,9.80
2009,04,05,14,20,9.80
2009,04,05,14,21,9.80
2009,04,05,14,22,9.80
2009,04,05,14,23,9.80
2009,04,05,14,24,9.80
2009,04,05,14,25,9.80
2009,04,05,14,26,9.80
2009,04,05,14,27,9.80
2009,04,05,14,28,9.90
2009,04,05,14,29,9.90
2009,04,05,14,30,10.00
2009,04,05,14,31,10.10
2009,04,05,14,32,10.10
2009,04,05,14,33,10.10
2009,04,05,14,34,10.10
2009,04,05,14,35,10.10
2009,04,05,14,36,10.10
2009,04,05,14,37,10.10
2009,04,05,14,38,10.00
2009,04,05,14,39,10.00
2009,04,05,14,40,9.90
2009,04,05,14,41,10.00
2009,04,05,14,42,10.00
2009,04,05,14,43,10.00
2009,04,05,14,44,10.00
2009,04,05,14,45,10.00
2009,04,05,14,46,9.90
2009,04,05,14,47,9.90
2009,04,05,14,48,9.90
2009,04,05,14,49,9.90
2009,04,05,14,50,9.90
2009,04,05,14,51,9.90
2009,04,05,14,52,9.90
2009,04,05,14,53,9.90
2009,04,05,14,54,9.90
2009,04,05,14,55,10.00
2009,04,05,14,56,10.00
2009,04,05,14,57,10.10
2009,04,05,14,58,10.10
2009,04,05,14,59,10.10
2009,04,05,15,00,10.00
2009,04,05,15,01,10.00
2009,04,05,15,02,10.00
2009,04,05,15,03,10.10
2009,04,05,15,04,10.20
2009,04,05,15,05,10.30
2009,04,05,15,06,10.40
2009,04,05,15,07,10.50
2009,04,05,15,08,10.50
2009,04,05,15,09,10.50
2009,04,05,15,10,10.60
2009,04,05,15,11,10.60
2009,04,05,15,12,10.60
2009,04,05,15,13,10.70
2009,04,05,15,14,10.80
2009,04,05,15,15,10.80
2009,04,05,15,16,10.90
2009,04,05,15,17,10.80
2009,04,05,15,18,10.80
2009,04,05,15,19,10.80
2009,04,05,15,20,10.80
2009,04,05,15,21,10.80
2009,04,05,15,22,10.70
2009,04,05,15,23,10.70
2009,04,05,15,24,10.70
2009,04,05,15,25,10.70
2009,04,05,15,26,10.60
2009,04,05,15,27,10.60
2009,04,05,15,28,10.60
2009,04,05,15,29,10.70
2009,04,05,15,30,10.60
2009,04,05,15,31,10.70
2009,04,05,15,32,10.70
2009,04,05,15,33,10.70
2009,04,05,15,34,10.70
2009,04,05,15,35,10.70
2009,04,05,15,36,10.70
2009,04,05,15,37,10.70
2009,04,05,15,38,10.70
2009,04,05,15,39,10.70
2009,04,05,15,40,10.70
2009,04,05,15,41,10.80
2009,04,05,15,42,10.80
2009,04,05,15,43,10.80
2009,04,05,15,44,10.80
2009,04,05,15,45,10.80
2009,04,05,15,46,10.80
2009,04,05,15,47,10.70
2009,04,05,15,48,10.50
2009,04,05,15,49,10.30
2009,04,05,15,50,10.20
2009,04,05,15,51,10.10
2009,04,05,15,52,10.10
2009,04,05,15,53,10.10
2009,04,05,15,54,10.10
2009,04,05,15,55,10.10
2009,04,05,15,56,10.00
2009,04,05,15,57,10.00
2009,04,05,15,58,10.00
2009,04,05,15,59,10.00
2009,04,05,16,00,10.00
2009,04,05,16,01,10.00
2009,04,05,16,02,10.10
2009,04,05,16,03,10.10
2009,04,05,16,04,10.20
2009,04,05,16,05,10.20
2009,04,05,16,06,10.20
2009,04,05,16,07,10.10
2009,04,05,16,08,10.20
2009,04,05,16,09,10.20
2009,04,05,16,10,10.20
2009,04,05,16,11,10.20
2009,04,05,16,12,10.20
2009,04,05,16,13,10.20
2009,04,05,16,14,10.20
2009,04,05,16,15,10.20
2009,04,05,16,16,10.20
2009,04,05,16,17,10.30
2009,04,05,16,18,10.30
2009,04,05,16,19,10.30
2009,04,05,16,20,10.30
2009,04,05,16,21,10.30
2009,04,05,16,22,10.40
2009,04,05,16,23,10.50
2009,04,05,16,24,10.50
2009,04,05,16,25,10.50
2009,04,05,16,26,10.50
2009,04,05,16,27,10.50
2009,04,05,16,28,10.40
2009,04,05,16,29,10.40
2009,04,05,16,30,10.40
2009,04,05,16,31,10.40
2009,04,05,16,32,10.40
2009,04,05,16,33,10.40
2009,04,05,16,34,10.40
2009,04,05,16,35,10.30
2009,04,05,16,36,10.30
2009,04,05,16,37,10.30
2009,04,05,16,38,10.30
2009,04,05,16,39,10.30
2009,04,05,16,40,10.30
2009,04,05,16,41,10.30
2009,04,05,16,42,10.30
2009,04,05,16,43,10.30
2009,04,05,16,44,10.30
2009,04,05,16,45,10.30
2009,04,05,16,46,10.30
2009,04,05,16,47,10.30
2009,04,05,16,48,10.30
2009,04,05,16,49,10.30
2009,04,05,16,50,10.20
2009,04,05,16,51,10.20
2009,04,05,16,52,10.10
2009,04,05,16,53,10.10
2009,04,05,16,54,10.10
2009,04,05,16,55,10.10
2009,04,05,16,56,10.10
2009,04,05,16,57,10.20
2009,04,05,16,58,10.20
2009,04,05,16,59,10.20
2009,04,05,17,00,10.20
2009,04,05,17,01,10.20
2009,04,05,17,02,10.20
2009,04,05,17,03,10.20
2009,04,05,17,04,10.20
2009,04,05,17,05,10.30
2009,04,05,17,06,10.20
2009,04,05,17,07,10.30
2009,04,05,17,08,10.30
2009,04,05,17,09,10.30
2009,04,05,17,10,10.30
2009,04,05,17,11,10.40
2009,04,05,17,12,10.40
2009,04,05,17,13,10.40
2009,04,05,17,14,10.40
2009,04,05,17,15,10.40
2009,04,05,17,16,10.40
2009,04,05,17,17,10.40
2009,04,05,17,18,10.40
2009,04,05,17,19,10.40
2009,04,05,17,20,10.40
2009,04,05,17,21,10.40
2009,04,05,17,22,10.40
2009,04,05,17,23,10.40
2009,04,05,17,24,10.40
2009,04,05,17,25,10.40
2009,04,05,17,26,10.40
2009,04,05,17,27,10.40
2009,04,05,17,28,10.40
2009,04,05,17,29,10.40
2009,04,05,17,30,10.40
2009,04,05,17,31,10.40
2009,04,05,17,32,10.40
2009,04,05,17,33,10.40
2009,04,05,17,34,10.40
2009,04,05,17,35,10.40
2009,04,05,17,36,10.40
2009,04,05,17,37,10.40
2009,04,05,17,38,10.40
2009,04,05,17,39,10.40
2009,04,05,17,40,10.40
2009,04,05,17,41,10.50
2009,04,05,17,42,10.50
2009,04,05,17,43,10.50
2009,04,05,17,44,10.60
2009,04,05,17,45,10.60
2009,04,05,17,46,10.60
2009,04,05,17,47,10.60
2009,04,05,17,48,10.70
2009,04,05,17,49,10.70
2009,04,05,17,50,10.70
2009,04,05,17,51,10.70
2009,04,05,17,52,10.70
2009,04,05,17,53,10.70
2009,04,05,17,54,10.70
2009,04,05,17,55,10.70